Time,TemperatureF,DewpointF,PressureIn,WindDirection,WindDirectionDegrees,WindSpeedMPH,WindSpeedGustMPH,Humidity,HourlyPrecipIn,Conditions,Clouds,dailyrainin,SoftwareType,DateUTC
2013-04-08 00:02:00,57.0,46.0,-100.00,SE,135,13.0,20.0,65,0.17,,,-99.99,,2013-04-08 05:02:00,
2013-04-08 00:12:00,57.0,46.0,-100.00,SE,130,12.0,20.0,68,0.07,,,-99.99,,2013-04-08 05:12:00,
2013-04-08 00:22:00,57.0,46.0,-100.00,SE,130,12.0,20.0,68,0.07,,,-99.99,,2013-04-08 05:22:00,
2013-04-08 00:32:00,56.0,47.0,-100.00,SSE,150,9.0,15.0,71,0.17,,,-99.99,,2013-04-08 05:32:00,
2013-04-08 00:42:00,55.0,48.0,-100.00,SW,225,9.0,14.0,77,0.10,,,-99.99,,2013-04-08 05:42:00,
2013-04-08 00:52:00,55.0,48.0,-100.00,South,175,6.0,11.0,78,0.08,,,-99.99,,2013-04-08 05:52:00,
2013-04-08 01:02:00,55.0,48.0,-100.00,South,175,6.0,11.0,78,0.08,,,-99.99,,2013-04-08 06:02:00,
2013-04-08 01:12:00,55.0,49.0,-100.00,SSW,210,5.0,10.0,80,0.10,,,-99.99,,2013-04-08 06:12:00,
2013-04-08 01:22:00,55.0,49.0,-100.00,SSW,200,6.0,10.0,81,0.11,,,-99.99,,2013-04-08 06:22:00,
2013-04-08 01:32:00,54.0,50.0,-100.00,SSW,210,6.0,7.0,85,0.11,,,-99.99,,2013-04-08 06:32:00,
2013-04-08 01:42:00,54.0,50.0,-100.00,SSW,210,6.0,7.0,85,0.11,,,-99.99,,2013-04-08 06:42:00,
2013-04-08 01:52:00,53.0,52.0,-100.00,SW,225,3.0,6.0,95,0.08,,,-99.99,,2013-04-08 06:52:00,
2013-04-08 02:02:00,53.0,52.0,-100.00,SW,225,3.0,6.0,95,0.08,,,-99.99,,2013-04-08 07:02:00,
2013-04-08 02:12:00,53.0,53.0,-100.00,SW,215,4.0,6.0,99,0.14,,,-99.99,,2013-04-08 07:12:00,
2013-04-08 02:22:00,53.0,53.0,-100.00,West,260,2.0,7.0,99,0.14,,,-99.99,,2013-04-08 07:22:00,
2013-04-08 02:33:00,53.0,53.0,-100.00,West,260,2.0,7.0,99,0.14,,,-99.99,,2013-04-08 07:33:00,
2013-04-08 03:02:00,53.0,53.0,-100.00,WNW,285,2.0,2.0,99,0.00,,,-99.99,,2013-04-08 08:02:00,
2013-04-08 03:12:00,53.0,53.0,-100.00,WNW,285,2.0,2.0,99,0.00,,,-99.99,,2013-04-08 08:12:00,
2013-04-08 03:22:00,53.0,53.0,-100.00,NNW,330,2.0,2.0,99,0.00,,,-99.99,,2013-04-08 08:22:00,
2013-04-08 03:32:00,53.0,53.0,-100.00,West,270,1.0,4.0,99,0.00,,,-99.99,,2013-04-08 08:32:00,
2013-04-08 03:42:00,51.0,51.0,-100.00,SE,140,3.0,4.0,99,0.00,,,-99.99,,2013-04-08 08:42:00,
2013-04-08 03:52:00,52.0,52.0,-100.00,WNW,300,0.0,3.0,99,0.17,,,-99.99,,2013-04-08 08:52:00,
2013-04-08 04:02:00,52.0,52.0,-100.00,WNW,300,0.0,3.0,99,0.17,,,-99.99,,2013-04-08 09:02:00,
2013-04-08 04:12:00,51.0,51.0,-100.00,NW,315,2.0,3.0,99,0.06,,,-99.99,,2013-04-08 09:12:00,
2013-04-08 04:22:00,52.0,52.0,-100.00,WNW,300,3.0,4.0,99,0.04,,,-99.99,,2013-04-08 09:22:00,
2013-04-08 04:33:00,52.0,52.0,-100.00,WNW,295,0.0,1.0,99,0.10,,,-99.99,,2013-04-08 09:33:00,
2013-04-08 04:42:00,52.0,52.0,-100.00,WNW,295,0.0,1.0,99,0.10,,,-99.99,,2013-04-08 09:42:00,
2013-04-08 04:53:00,51.0,51.0,-100.00,WNW,285,1.0,2.0,99,0.00,,,-99.99,,2013-04-08 09:53:00,
2013-04-08 05:03:00,51.0,51.0,-100.00,WNW,285,1.0,2.0,99,0.00,,,-99.99,,2013-04-08 10:03:00,
2013-04-08 05:13:00,50.0,50.0,-100.00,SSW,210,2.0,2.0,99,0.00,,,-99.99,,2013-04-08 10:13:00,
2013-04-08 05:23:00,49.0,49.0,-100.00,WSW,245,1.0,2.0,99,0.00,,,-99.99,,2013-04-08 10:23:00,
2013-04-08 05:33:00,49.0,49.0,-100.00,ENE,70,2.0,2.0,99,0.00,,,-99.99,,2013-04-08 10:33:00,
2013-04-08 05:42:00,49.0,49.0,-100.00,ENE,70,2.0,2.0,99,0.00,,,-99.99,,2013-04-08 10:42:00,
2013-04-08 05:52:00,50.0,50.0,-100.00,East,100,1.0,2.0,99,0.00,,,-99.99,,2013-04-08 10:52:00,
2013-04-08 06:02:00,50.0,50.0,-100.00,East,100,1.0,2.0,99,0.00,,,-99.99,,2013-04-08 11:02:00,
2013-04-08 06:12:00,48.0,48.0,-100.00,NW,320,2.0,4.0,99,0.00,,,-99.99,,2013-04-08 11:12:00,
2013-04-08 06:22:00,49.0,49.0,-100.00,West,265,2.0,4.0,99,0.00,,,-99.99,,2013-04-08 11:22:00,
2013-04-08 06:32:00,45.0,45.0,-100.00,ESE,105,0.0,1.0,99,0.00,,,-99.99,,2013-04-08 11:32:00,
2013-04-08 06:42:00,45.0,45.0,-100.00,ESE,105,0.0,1.0,99,0.00,,,-99.99,,2013-04-08 11:42:00,
2013-04-08 06:52:00,45.0,45.0,-100.00,North,5,1.0,3.0,99,0.00,,,-99.99,,2013-04-08 11:52:00,
2013-04-08 07:03:00,45.0,45.0,-100.00,North,5,1.0,3.0,99,0.00,,,-99.99,,2013-04-08 12:03:00,
2013-04-08 07:12:00,46.0,46.0,-100.00,North,0,1.0,2.0,99,0.00,,,-99.99,,2013-04-08 12:12:00,
2013-04-08 07:22:00,45.0,45.0,-100.00,West,265,1.0,2.0,99,0.00,,,-99.99,,2013-04-08 12:22:00,
2013-04-08 07:33:00,44.0,44.0,-100.00,WSW,255,4.0,4.0,99,0.00,,,-99.99,,2013-04-08 12:33:00,
2013-04-08 07:42:00,44.0,44.0,-100.00,WSW,255,4.0,4.0,99,0.00,,,-99.99,,2013-04-08 12:42:00,
2013-04-08 07:52:00,45.0,45.0,-100.00,WSW,255,2.0,5.0,99,0.00,,,-99.99,,2013-04-08 12:52:00,
2013-04-08 08:03:00,45.0,45.0,-100.00,WSW,255,2.0,5.0,99,0.00,,,-99.99,,2013-04-08 13:03:00,
2013-04-08 08:12:00,46.0,46.0,-100.00,SW,230,2.0,4.0,99,0.00,,,-99.99,,2013-04-08 13:12:00,
2013-04-08 08:22:00,48.0,47.0,-100.00,WSW,245,1.0,3.0,99,0.00,,,-99.99,,2013-04-08 13:22:00,
2013-04-08 08:32:00,50.0,50.0,-100.00,SSE,150,0.0,1.0,99,0.00,,,-99.99,,2013-04-08 13:32:00,
2013-04-08 08:42:00,50.0,50.0,-100.00,SSE,150,0.0,1.0,99,0.00,,,-99.99,,2013-04-08 13:42:00,
2013-04-08 08:52:00,51.0,51.0,-100.00,SW,235,2.0,3.0,99,0.00,,,-99.99,,2013-04-08 13:52:00,
2013-04-08 09:02:00,51.0,51.0,-100.00,SW,235,2.0,3.0,99,0.00,,,-99.99,,2013-04-08 14:02:00,
2013-04-08 09:12:00,52.0,52.0,-100.00,SW,215,1.0,3.0,99,0.00,,,-99.99,,2013-04-08 14:12:00,
2013-04-08 09:22:00,54.0,54.0,-100.00,SW,215,1.0,2.0,99,0.00,,,-99.99,,2013-04-08 14:22:00,
2013-04-08 09:32:00,55.0,55.0,-100.00,WSW,255,2.0,4.0,99,0.00,,,-99.99,,2013-04-08 14:32:00,
2013-04-08 09:42:00,55.0,55.0,-100.00,WSW,255,2.0,4.0,99,0.00,,,-99.99,,2013-04-08 14:42:00,
2013-04-08 09:52:00,57.0,57.0,-100.00,WSW,250,3.0,6.0,99,0.00,,,-99.99,,2013-04-08 14:52:00,
2013-04-08 10:02:00,57.0,57.0,-100.00,WSW,250,3.0,6.0,99,0.00,,,-99.99,,2013-04-08 15:02:00,
2013-04-08 10:12:00,58.0,58.0,-100.00,West,260,2.0,6.0,99,0.00,,,-99.99,,2013-04-08 15:12:00,
2013-04-08 10:22:00,59.0,59.0,-100.00,SW,225,4.0,6.0,99,0.00,,,-99.99,,2013-04-08 15:22:00,
2013-04-08 10:33:00,62.0,58.0,-100.00,SW,235,7.0,10.0,89,0.00,,,-99.99,,2013-04-08 15:33:00,
2013-04-08 10:42:00,62.0,58.0,-100.00,SW,235,7.0,10.0,89,0.00,,,-99.99,,2013-04-08 15:42:00,
2013-04-08 10:52:00,63.0,57.0,-100.00,WSW,245,7.0,12.0,81,0.00,,,-99.99,,2013-04-08 15:52:00,
2013-04-08 11:03:00,63.0,57.0,-100.00,WSW,245,7.0,12.0,81,0.00,,,-99.99,,2013-04-08 16:03:00,
2013-04-08 11:13:00,63.0,57.0,-100.00,SW,230,6.0,11.0,80,0.00,,,-99.99,,2013-04-08 16:13:00,
2013-04-08 11:22:00,63.0,57.0,-100.00,SW,220,7.0,11.0,81,0.00,,,-99.99,,2013-04-08 16:22:00,
2013-04-08 11:32:00,64.0,58.0,-100.00,WSW,240,9.0,12.0,78,0.00,,,-99.99,,2013-04-08 16:32:00,
2013-04-08 11:42:00,65.0,57.0,-100.00,SW,235,9.0,12.0,75,0.00,,,-99.99,,2013-04-08 16:42:00,
2013-04-08 11:52:00,65.0,56.0,-100.00,SW,235,4.0,13.0,71,0.00,,,-99.99,,2013-04-08 16:52:00,
2013-04-08 12:03:00,65.0,56.0,-100.00,SW,235,4.0,13.0,71,0.00,,,-99.99,,2013-04-08 17:03:00,
2013-04-08 12:12:00,66.0,54.0,-100.00,WNW,290,7.0,12.0,65,0.00,,,-99.99,,2013-04-08 17:12:00,
2013-04-08 12:22:00,66.0,55.0,-100.00,WNW,295,6.0,9.0,66,0.00,,,-99.99,,2013-04-08 17:22:00,
2013-04-08 12:32:00,67.0,56.0,-100.00,SE,145,1.0,14.0,67,0.00,,,-99.99,,2013-04-08 17:32:00,
2013-04-08 12:43:00,67.0,56.0,-100.00,SE,145,1.0,14.0,67,0.00,,,-99.99,,2013-04-08 17:43:00,
2013-04-08 12:52:00,69.0,56.0,-100.00,SSW,200,6.0,10.0,62,0.00,,,-99.99,,2013-04-08 17:52:00,
2013-04-08 13:02:00,69.0,56.0,-100.00,SSW,200,6.0,10.0,62,0.00,,,-99.99,,2013-04-08 18:02:00,
2013-04-08 13:12:00,68.0,55.0,-100.00,WNW,285,4.0,9.0,62,0.00,,,-99.99,,2013-04-08 18:12:00,
2013-04-08 13:22:00,70.0,54.0,-100.00,NW,320,4.0,5.0,57,0.00,,,-99.99,,2013-04-08 18:22:00,
2013-04-08 13:32:00,70.0,54.0,-100.00,SW,220,5.0,10.0,56,0.00,,,-99.99,,2013-04-08 18:32:00,
2013-04-08 13:42:00,70.0,54.0,-100.00,SW,220,5.0,10.0,56,0.00,,,-99.99,,2013-04-08 18:42:00,
2013-04-08 13:52:00,71.0,54.0,-100.00,WSW,250,1.0,10.0,55,0.00,,,-99.99,,2013-04-08 18:52:00,
2013-04-08 14:02:00,71.0,54.0,-100.00,WSW,250,1.0,10.0,55,0.00,,,-99.99,,2013-04-08 19:02:00,
2013-04-08 14:12:00,72.0,55.0,-100.00,SW,220,2.0,9.0,55,0.00,,,-99.99,,2013-04-08 19:12:00,
2013-04-08 14:22:00,72.0,55.0,-100.00,WSW,240,2.0,11.0,54,0.00,,,-99.99,,2013-04-08 19:22:00,
2013-04-08 14:33:00,72.0,55.0,-100.00,SW,215,4.0,12.0,55,0.00,,,-99.99,,2013-04-08 19:33:00,
2013-04-08 14:42:00,72.0,55.0,-100.00,SW,215,4.0,12.0,55,0.00,,,-99.99,,2013-04-08 19:42:00,
2013-04-08 14:52:00,73.0,56.0,-100.00,WSW,245,6.0,10.0,53,0.00,,,-99.99,,2013-04-08 19:52:00,
2013-04-08 15:02:00,73.0,56.0,-100.00,WSW,245,6.0,10.0,53,0.00,,,-99.99,,2013-04-08 20:02:00,
2013-04-08 15:12:00,73.0,55.0,-100.00,SSW,210,8.0,12.0,52,0.00,,,-99.99,,2013-04-08 20:12:00,
2013-04-08 15:22:00,74.0,55.0,-100.00,SW,220,4.0,10.0,50,0.00,,,-99.99,,2013-04-08 20:22:00,
2013-04-08 15:33:00,75.0,55.0,-100.00,SSW,205,4.0,10.0,49,0.00,,,-99.99,,2013-04-08 20:33:00,
2013-04-08 15:42:00,75.0,55.0,-100.00,SSW,205,4.0,10.0,49,0.00,,,-99.99,,2013-04-08 20:42:00,
2013-04-08 15:52:00,75.0,55.0,-100.00,SW,215,9.0,12.0,49,0.00,,,-99.99,,2013-04-08 20:52:00,
2013-04-08 16:02:00,75.0,55.0,-100.00,SW,215,9.0,12.0,49,0.00,,,-99.99,,2013-04-08 21:02:00,
2013-04-08 16:12:00,75.0,55.0,-100.00,SW,220,10.0,14.0,49,0.00,,,-99.99,,2013-04-08 21:12:00,
2013-04-08 16:22:00,75.0,54.0,-100.00,SSW,205,9.0,13.0,48,0.00,,,-99.99,,2013-04-08 21:22:00,
2013-04-08 16:32:00,75.0,54.0,-100.00,SSW,210,9.0,15.0,48,0.00,,,-99.99,,2013-04-08 21:32:00,
2013-04-08 16:43:00,75.0,54.0,-100.00,SSW,210,9.0,15.0,48,0.00,,,-99.99,,2013-04-08 21:43:00,
2013-04-08 16:52:00,73.0,55.0,-100.00,WSW,245,10.0,16.0,53,0.00,,,-99.99,,2013-04-08 21:52:00,
2013-04-08 17:03:00,73.0,55.0,-100.00,WSW,245,10.0,16.0,53,0.00,,,-99.99,,2013-04-08 22:03:00,
2013-04-08 17:13:00,74.0,55.0,-100.00,South,185,5.0,13.0,52,0.00,,,-99.99,,2013-04-08 22:13:00,
2013-04-08 17:22:00,74.0,55.0,-100.00,SW,215,8.0,14.0,51,0.00,,,-99.99,,2013-04-08 22:22:00,
2013-04-08 17:32:00,74.0,56.0,-100.00,SSW,205,11.0,15.0,53,0.00,,,-99.99,,2013-04-08 22:32:00,
2013-04-08 17:42:00,73.0,56.0,-100.00,SSW,210,9.0,15.0,56,0.00,,,-99.99,,2013-04-08 22:42:00,
2013-04-08 17:52:00,73.0,56.0,-100.00,SSW,210,9.0,15.0,56,0.00,,,-99.99,,2013-04-08 22:52:00,
2013-04-08 18:02:00,73.0,57.0,-100.00,SSW,200,5.0,11.0,58,0.00,,,-99.99,,2013-04-08 23:02:00,
2013-04-08 18:12:00,72.0,58.0,-100.00,SSW,205,7.0,11.0,61,0.00,,,-99.99,,2013-04-08 23:12:00,
2013-04-08 18:22:00,72.0,58.0,-100.00,SSW,205,7.0,11.0,61,0.00,,,-99.99,,2013-04-08 23:22:00,
2013-04-08 18:32:00,71.0,58.0,-100.00,SSW,205,6.0,9.0,61,0.00,,,-99.99,,2013-04-08 23:32:00,
2013-04-08 18:42:00,71.0,58.0,-100.00,SSW,205,6.0,9.0,61,0.00,,,-99.99,,2013-04-08 23:42:00,
2013-04-08 18:52:00,71.0,58.0,-100.00,SSE,155,2.0,5.0,63,0.00,,,-99.99,,2013-04-08 23:52:00,
2013-04-08 19:02:00,71.0,58.0,-100.00,SSE,155,2.0,5.0,63,0.00,,,-99.99,,2013-04-09 00:02:00,
2013-04-08 19:12:00,70.0,58.0,-100.00,South,180,2.0,4.0,64,0.00,,,-99.99,,2013-04-09 00:12:00,
2013-04-08 19:22:00,70.0,57.0,-100.00,SSE,150,2.0,6.0,65,0.00,,,-99.99,,2013-04-09 00:22:00,
2013-04-08 19:32:00,68.0,58.0,-100.00,SSW,200,3.0,5.0,71,0.00,,,-99.99,,2013-04-09 00:32:00,
2013-04-08 19:42:00,68.0,58.0,-100.00,SSW,200,3.0,5.0,71,0.00,,,-99.99,,2013-04-09 00:42:00,
2013-04-08 19:52:00,66.0,57.0,-100.00,SE,140,1.0,4.0,73,0.00,,,-99.99,,2013-04-09 00:52:00,
2013-04-08 20:02:00,66.0,57.0,-100.00,SE,140,1.0,4.0,73,0.00,,,-99.99,,2013-04-09 01:02:00,
2013-04-08 20:12:00,66.0,57.0,-100.00,East,100,2.0,3.0,72,0.00,,,-99.99,,2013-04-09 01:12:00,
2013-04-08 20:22:00,65.0,57.0,-100.00,NE,55,1.0,3.0,75,0.00,,,-99.99,,2013-04-09 01:22:00,
2013-04-08 20:33:00,64.0,57.0,-100.00,ENE,70,4.0,4.0,78,0.00,,,-99.99,,2013-04-09 01:33:00,
2013-04-08 20:42:00,64.0,57.0,-100.00,ENE,70,4.0,4.0,78,0.00,,,-99.99,,2013-04-09 01:42:00,
2013-04-08 20:52:00,64.0,57.0,-100.00,East,80,3.0,4.0,76,0.00,,,-99.99,,2013-04-09 01:52:00,
2013-04-08 21:02:00,64.0,57.0,-100.00,East,80,3.0,4.0,76,0.00,,,-99.99,,2013-04-09 02:02:00,
2013-04-08 21:12:00,61.0,56.0,-100.00,ENE,60,2.0,4.0,82,0.00,,,-99.99,,2013-04-09 02:12:00,
2013-04-08 21:22:00,62.0,56.0,-100.00,NNE,30,3.0,4.0,82,0.00,,,-99.99,,2013-04-09 02:22:00,
2013-04-08 21:32:00,63.0,57.0,-100.00,East,80,3.0,5.0,79,0.00,,,-99.99,,2013-04-09 02:32:00,
2013-04-08 21:42:00,63.0,57.0,-100.00,East,80,3.0,5.0,79,0.00,,,-99.99,,2013-04-09 02:42:00,
2013-04-08 21:52:00,62.0,56.0,-100.00,ENE,75,1.0,4.0,80,0.00,,,-99.99,,2013-04-09 02:52:00,
2013-04-08 22:02:00,62.0,56.0,-100.00,ENE,75,1.0,4.0,80,0.00,,,-99.99,,2013-04-09 03:02:00,
2013-04-08 22:12:00,61.0,56.0,-100.00,ENE,75,6.0,6.0,83,0.00,,,-99.99,,2013-04-09 03:12:00,
2013-04-08 22:21:00,61.0,56.0,-100.00,ESE,105,1.0,7.0,84,0.00,,,-99.99,,2013-04-09 03:21:00,
2013-04-08 22:33:00,63.0,58.0,-100.00,ESE,105,3.0,6.0,82,0.00,,,-99.99,,2013-04-09 03:33:00,
2013-04-08 22:43:00,63.0,58.0,-100.00,ESE,105,3.0,6.0,82,0.00,,,-99.99,,2013-04-09 03:43:00,
2013-04-08 22:52:00,62.0,58.0,-100.00,ENE,65,4.0,5.0,85,0.00,,,-99.99,,2013-04-09 03:52:00,
2013-04-08 23:03:00,62.0,58.0,-100.00,ENE,65,4.0,5.0,85,0.00,,,-99.99,,2013-04-09 04:03:00,
2013-04-08 23:13:00,62.0,58.0,-100.00,East,80,1.0,4.0,85,0.00,,,-99.99,,2013-04-09 04:13:00,
2013-04-08 23:23:00,63.0,59.0,-100.00,ESE,110,4.0,6.0,85,0.00,,,-99.99,,2013-04-09 04:23:00,
2013-04-08 23:32:00,63.0,59.0,-100.00,ESE,115,3.0,6.0,88,0.00,,,-99.99,,2013-04-09 04:32:00,
2013-04-08 23:42:00,63.0,59.0,-100.00,ESE,115,3.0,6.0,88,0.00,,,-99.99,,2013-04-09 04:42:00,
2013-04-08 23:52:00,63.0,59.0,-100.00,ESE,115,3.0,6.0,88,0.00,,,-99.99,,2013-04-09 04:52:00,